Waarnemingen

Advertentie
Mijn weer
Junsele, Zweden (2244): temperatuur & dauwpunt: 11.10.2018 05:00:00 - 17.10.2018 05:00:00 (CEST)Junsele, Zweden (2244): windsnelheid & windstoten: 11.10.2018 05:00:00 - 17.10.2018 05:00:00 (CEST)Junsele, Zweden (2244): windrichting: 11.10.2018 05:00:00 - 17.10.2018 05:00:00 (CEST)Junsele, Zweden (2244): luchtdruk: 11.10.2018 05:00:00 - 17.10.2018 05:00:00 (CEST)Junsele, Zweden (2244): zicht: 11.10.2018 05:00:00 - 17.10.2018 05:00:00 (CEST)Junsele, Zweden (2244): neerslag: 11.10.2018 05:00:00 - 17.10.2018 05:00:00 (CEST)
Datum & Tijd tt [°C] td [°C] ff [km/u] ff [kn] fx [km/u] fx [kn] dd ppp [hPa] vv [km] rr [mm]
17.10.2018 05:00:00 - - - - - - - - - -
17.10.2018 04:00:00 4,8 4,1 9 5 19 11 ZO 1014,3 50 0,0
17.10.2018 03:00:00 4,4 3,8 7 4 17 9 ZZO 1015,1 50 0,0
17.10.2018 02:00:00 3,3 3,0 8 5 15 8 ZO 1015,5 50 0,0
17.10.2018 01:00:00 2,5 2,5 6 4 12 7 OZO 1015,8 50 0,0
17.10.2018 00:00:00 1,7 1,7 4 2 7 4 OZO 1017,4 48 0,0
16.10.2018 23:00:00 1,2 1,2 3 2 9 5 O 1017,9 50 0,0
16.10.2018 22:00:00 2,0 2,0 3 1 8 4 O 1018,0 20 0,0
16.10.2018 21:00:00 2,1 2,1 4 2 8 5 OZO 1018,7 39 0,0
16.10.2018 20:00:00 2,6 2,6 4 2 8 4 OZO 1018,9 49 0,0
16.10.2018 19:00:00 3,7 3,7 4 2 8 4 ZO 1019,1 43 0,0
16.10.2018 18:00:00 3,6 3,5 3 2 6 3 OZO 1019,1 37 0,0
16.10.2018 17:00:00 6,0 4,6 2 1 8 4 ZZO 1018,7 46 0,0
16.10.2018 16:00:00 9,2 4,8 7 4 11 6 ZW 1018,9 47 0,0
16.10.2018 15:00:00 8,6 5,0 4 2 9 5 ZW 1018,5 50 0,0
16.10.2018 14:00:00 8,5 5,6 4 2 11 6 ZW 1018,4 48 0,0
16.10.2018 13:00:00 6,7 4,4 7 4 14 8 W 1018,9 49 0,0
16.10.2018 12:00:00 6,0 3,7 5 3 14 7 WZW 1018,9 50 0,0
16.10.2018 11:00:00 4,4 4,3 3 1 8 5 W 1019,2 50 0,0
16.10.2018 10:00:00 2,9 2,9 3 1 6 4 ZZW 1018,3 50 0,0
16.10.2018 09:00:00 -0,3 -0,3 2 1 6 3 WZW 1018,2 0,5 0,0
16.10.2018 08:00:00 -0,5 -0,5 1 1 8 4 ZZO 1017,3 0,6 0,0
16.10.2018 07:00:00 0,0 0,0 3 1 8 5 Z 1016,5 0,8 0,0
16.10.2018 06:00:00 1,5 1,5 3 1 10 5 W 1015,9 1,3 0,0
16.10.2018 05:00:00 3,0 3,0 2 1 6 3 ONO 1015,1 0,3 0,0
16.10.2018 04:00:00 3,4 3,4 1 1 9 5 O 1014,7 0,6 0,0
16.10.2018 03:00:00 4,3 4,3 3 1 5 3 WZW 1014,1 2,8 0,0
16.10.2018 02:00:00 5,0 5,0 3 1 7 4 ZW 1013,5 2,9 0,0
16.10.2018 01:00:00 5,7 5,7 4 2 8 4 W 1013,5 3,1 0,1
16.10.2018 00:00:00 5,7 5,7 3 2 9 5 W 1013,0 50 0,0
15.10.2018 23:00:00 5,7 5,7 3 1 5 3 W 1012,7 42 0,0
15.10.2018 22:00:00 5,9 5,9 3 2 6 3 WZW 1012,8 7 0,0
15.10.2018 21:00:00 6,0 6,0 2 1 4 2 W 1012,5 29 0,0
15.10.2018 20:00:00 6,1 6,1 2 1 4 2 NW 1012,5 8 0,5
15.10.2018 19:00:00 6,2 6,2 1 1 4 2 W 1012,9 11 0,6
15.10.2018 18:00:00 6,3 6,2 1 1 4 2 WNW 1012,8 16 0,4
15.10.2018 17:00:00 6,6 6,2 1 1 6 4 NNW 1012,7 12 0,7
15.10.2018 16:00:00 7,0 6,7 3 1 5 3 W 1012,6 10 0,5
15.10.2018 15:00:00 7,3 6,7 1 0 5 3 WNW 1012,6 11 0,6
15.10.2018 14:00:00 7,6 6,4 1 0 9 5 N 1012,8 13 0,5
15.10.2018 13:00:00 8,4 4,6 3 2 14 8 NW 1012,2 21 0,0
15.10.2018 12:00:00 8,6 4,4 4 2 16 9 NW 1012,3 14 0,0
15.10.2018 11:00:00 8,3 4,3 6 3 21 11 WNW 1012,1 50 0,0
15.10.2018 10:00:00 8,4 4,8 5 3 18 10 NW 1011,1 50 0,0
15.10.2018 09:00:00 8,4 5,5 8 4 19 10 W 1010,8 50 0,0
15.10.2018 08:00:00 8,1 5,6 6 4 12 6 W 1009,6 50 0,0
15.10.2018 07:00:00 8,7 6,5 6 3 16 9 W 1008,9 50 0,0
15.10.2018 06:00:00 8,8 7,1 4 2 41 22 NNW 1007,8 50 0,0
15.10.2018 05:00:00 12,5 8,0 11 6 24 13 WZW 1005,7 23 0,0
15.10.2018 04:00:00 11,8 8,1 7 4 29 15 Z 1004,6 23 0,0
15.10.2018 03:00:00 12,9 8,2 11 6 25 13 ZZW 1004,4 27 0,0
15.10.2018 02:00:00 12,3 7,6 9 5 21 11 Z 1004,2 32 0,0
15.10.2018 01:00:00 13,3 7,5 6 3 27 15 Z 1004,3 36 0,0
15.10.2018 00:00:00 14,2 7,7 11 6 29 16 Z 1004,3 41 0,0
14.10.2018 23:00:00 15,4 7,7 12 6 30 16 Z 1004,8 47 0,0
14.10.2018 22:00:00 16,0 8,0 11 6 29 16 Z 1005,0 50 0,0
14.10.2018 21:00:00 16,6 8,0 12 7 27 15 Z 1005,0 46 0,0
14.10.2018 20:00:00 17,3 7,6 13 7 38 21 Z 1005,1 50 0,0
14.10.2018 19:00:00 17,3 9,2 11 6 23 13 Z 1005,2 50 0,0
14.10.2018 18:00:00 17,4 9,8 7 4 21 11 ZZO 1005,3 50 0,0
14.10.2018 17:00:00 19,5 9,9 7 4 31 17 Z 1005,1 50 0,0
14.10.2018 16:00:00 21,1 10,0 13 7 39 21 Z 1005,5 48 0,0
14.10.2018 15:00:00 21,6 10,4 14 7 34 18 Z 1006,0 49 0,0
14.10.2018 14:00:00 21,0 11,6 16 8 37 20 ZZW 1006,7 37 0,0
14.10.2018 13:00:00 20,5 12,0 19 10 38 21 ZZW 1007,2 45 0,0
14.10.2018 12:00:00 19,9 12,9 15 8 42 23 ZZW 1007,4 35 0,0
14.10.2018 11:00:00 18,9 13,1 16 8 31 17 ZZW 1007,8 43 0,0
14.10.2018 10:00:00 18,0 12,7 10 6 27 15 Z 1007,9 38 0,0
14.10.2018 09:00:00 16,4 12,2 10 6 25 14 Z 1008,0 47 0,0
14.10.2018 08:00:00 15,6 11,6 9 5 24 13 Z 1007,9 50 0,0
14.10.2018 07:00:00 16,5 11,8 13 7 28 15 Z 1007,9 49 0,0
14.10.2018 06:00:00 16,0 12,2 8 4 26 14 Z 1008,1 50 0,0
14.10.2018 05:00:00 16,7 12,4 11 6 29 15 Z 1007,9 50 0,0
14.10.2018 04:00:00 17,3 12,6 10 6 29 16 Z 1008,0 50 0,0
14.10.2018 03:00:00 17,8 12,9 15 8 31 17 ZZW 1008,1 50 0,0
14.10.2018 02:00:00 17,6 12,9 13 7 36 20 ZZW 1008,2 50 0,0
14.10.2018 01:00:00 17,5 12,8 12 6 28 15 ZZW 1008,3 50 0,0
14.10.2018 00:00:00 17,0 12,7 10 5 29 16 ZZW 1008,1 50 0,0
13.10.2018 23:00:00 17,4 12,7 11 6 28 15 ZZW 1008,0 50 0,0
13.10.2018 22:00:00 16,9 12,8 9 5 26 14 ZZW 1008,5 50 0,0
13.10.2018 21:00:00 16,2 12,7 9 5 26 14 Z 1008,6 48 0,0
13.10.2018 20:00:00 16,2 12,7 10 6 23 12 Z 1009,0 50 0,0
13.10.2018 19:00:00 15,9 12,6 6 3 28 15 Z 1009,4 39 0,0
13.10.2018 18:00:00 16,1 12,6 11 6 27 14 ZZW 1009,4 45 0,0
13.10.2018 17:00:00 15,6 12,5 8 4 25 14 Z 1009,3 41 0,0
13.10.2018 16:00:00 15,4 12,0 9 5 22 12 ZZO 1010,0 46 0,0
13.10.2018 15:00:00 15,1 11,5 8 4 21 12 Z 1010,3 41 0,0
13.10.2018 14:00:00 - - - - - - - - - -
13.10.2018 13:00:00 14,6 10,6 10 6 29 16 Z 1010,6 42 0,0
13.10.2018 12:00:00 14,6 10,2 11 6 23 12 ZZW 1010,5 40 0,0
13.10.2018 11:00:00 12,9 9,5 8 4 25 14 Z 1010,6 31 0,0
13.10.2018 10:00:00 11,7 9,3 10 5 23 12 Z 1010,9 24 0,0
13.10.2018 09:00:00 11,1 9,0 9 5 21 11 ZZO 1011,5 22 0,1
13.10.2018 08:00:00 10,8 9,1 7 4 22 12 ZZO 1011,5 16 0,0
13.10.2018 07:00:00 9,9 9,0 9 5 19 11 ZO 1011,2 10 0,0
13.10.2018 06:00:00 9,9 9,1 9 5 23 12 ZZO 1012,1 8 0,3
13.10.2018 05:00:00 9,7 8,9 9 5 21 11 ZZO 1012,9 8 0,5
13.10.2018 04:00:00 8,0 7,7 8 4 18 10 ZO 1013,4 6 0,0
13.10.2018 03:00:00 7,7 7,3 5 3 13 7 OZO 1013,9 7 0,0
13.10.2018 02:00:00 7,3 7,2 5 3 16 9 ZZO 1014,5 6 0,0
13.10.2018 01:00:00 6,3 6,3 3 2 13 7 ONO 1015,0 4,4 0,0
13.10.2018 00:00:00 6,0 6,0 5 3 11 6 OZO 1015,5 3,8 0,0
12.10.2018 23:00:00 5,8 5,8 4 2 12 7 OZO 1016,2 3,1 0,0
12.10.2018 22:00:00 6,5 6,4 7 4 13 7 ZO 1016,3 6 0,0
12.10.2018 21:00:00 7,6 7,3 5 3 15 8 ZO 1017,0 8 0,0
12.10.2018 20:00:00 7,5 7,4 5 3 14 8 ZZO 1016,7 7 0,0
12.10.2018 19:00:00 7,6 7,5 6 3 11 6 ZO 1016,7 9 0,0
12.10.2018 18:00:00 7,2 6,8 5 3 13 7 OZO 1016,7 12 0,0
12.10.2018 17:00:00 7,5 7,1 4 2 15 8 ZO 1017,3 12 0,0
12.10.2018 16:00:00 7,9 7,0 5 3 18 10 ZZW 1017,9 18 0,0
12.10.2018 15:00:00 9,0 7,0 11 6 16 9 ZW 1018,4 28 0,0
12.10.2018 14:00:00 10,6 8,0 7 4 22 12 Z 1018,2 37 0,0
12.10.2018 13:00:00 7,7 7,6 8 4 18 10 ZO 1019,1 14 0,0
12.10.2018 12:00:00 7,3 7,3 6 3 14 8 ZO 1019,6 7 0,0
12.10.2018 11:00:00 6,7 6,7 6 3 13 7 ZZO 1019,9 3,3 0,0
12.10.2018 10:00:00 6,0 6,0 5 3 13 7 ZO 1020,2 0,8 0,0
12.10.2018 09:00:00 5,1 5,1 6 4 16 8 ZO 1020,3 0,7 0,0
12.10.2018 08:00:00 3,9 3,9 6 4 13 7 OZO 1020,3 0,7 0,0
12.10.2018 07:00:00 4,0 4,0 5 3 10 5 OZO 1020,1 2,1 0,0
12.10.2018 06:00:00 4,8 4,8 4 2 14 7 ZO 1020,0 8 0,0
12.10.2018 05:00:00 4,3 4,3 6 3 10 5 OZO 1020,3 11 0,0
12.10.2018 04:00:00 4,2 4,2 4 2 9 5 OZO 1020,7 13 0,0
12.10.2018 03:00:00 5,1 5,1 4 2 9 5 ZO 1020,9 50 0,0
12.10.2018 02:00:00 3,0 3,0 2 1 9 5 O 1021,3 0,4 0,0
12.10.2018 01:00:00 3,4 3,4 5 3 9 5 O 1021,2 1,8 0,0
12.10.2018 00:00:00 2,3 2,3 4 2 8 4 O 1021,7 2,7 0,0
11.10.2018 23:00:00 3,4 3,4 4 2 9 5 O 1022,0 1,2 0,0
11.10.2018 22:00:00 4,8 4,8 4 2 6 4 OZO 1021,9 1,3 0,0
11.10.2018 21:00:00 5,7 5,7 2 1 9 5 O 1022,1 0,2 0,0
11.10.2018 20:00:00 - - - - - - - - - -
11.10.2018 19:00:00 8,4 8,3 5 3 11 6 ZO 1022,6 14 0,0
11.10.2018 18:00:00 8,6 8,2 5 3 12 7 ZO 1022,8 49 0,0
11.10.2018 17:00:00 8,8 8,0 7 4 16 9 Z 1023,3 42 0,0
11.10.2018 16:00:00 9,5 7,4 11 6 23 13 Z 1023,2 42 0,0
11.10.2018 15:00:00 13,7 8,9 9 5 17 9 ZZW 1022,6 50 0,0
11.10.2018 14:00:00 13,2 8,5 4 2 10 5 Z 1023,1 46 0,0
11.10.2018 13:00:00 13,1 7,8 2 1 8 4 Z 1023,5 41 0,0
11.10.2018 12:00:00 10,9 6,8 4 2 10 5 ZO 1024,0 47 0,0
11.10.2018 11:00:00 8,4 5,5 3 2 6 3 ZZO 1024,6 50 0,0
11.10.2018 10:00:00 5,2 4,2 2 1 5 3 ZZO 1025,1 50 0,0
11.10.2018 09:00:00 1,0 1,0 3 1 8 5 O 1025,0 42 0,0
11.10.2018 08:00:00 -0,7 -0,7 2 1 5 3 NO 1025,0 43 0,0
11.10.2018 07:00:00 -0,6 -0,6 2 1 4 2 OZO 1024,7 17 0,0
11.10.2018 06:00:00 0,4 0,4 2 1 4 2 NNO 1024,5 32 0,0
11.10.2018 05:00:00 1,2 1,2 2 1 4 2 OZO 1023,7 23 0,0

tt = temperatuur
td = dauwpunt
ff = windsnelheid
fx = windstoten
dd = windrichting
ppp = luchtdruk
vv = zicht
rr = neerslag

Weerstations in de omgeving